sat.trackr.live / text

‹ back to catalog

STARLINK-35460

NORAD 66328 · 2025-253K

PAYLOAD ACTIVE UNKNOWN

§ Identity

Operator
Country
US
Launch date
2025-11-06
Launch site
AFETR
Launch vehicle
Mass (kg)
RCS (m²)

Purposes: comms

External: N2YO · Heavens-Above · Gunter

§ Orbital elements

Epoch: 2026-05-25T00:15:43.068096Z

Period
94.27 min
Inclination
42.9981°
Eccentricity
0.0000442
Mean motion
15.27591710 rev/d
Perigee alt
482.7 km
Apogee alt
483.3 km
Semi-major
6,861.2 km
B*
4.6789e-4
RAAN
141.7610°
Arg perigee
227.5357°
Mean anomaly
132.5457°
Rev number
3,191

§ Raw data

STARLINK-354601 66328U 25253K   26145.01091514  .00012640  00000+0  46789-3 0  99902 66328  42.9981 141.7610 0000442 227.5357 132.5457 15.27591710 31910

JSON: /api/v1/satellites/66328 · /tle

For live sub-satellite position, see the globe view (requires WebGL).

§ Visibility from observer

Set your observer location to see the next 7 days of passes ≥ 10°. The values pass through the URL so the page stays shareable.

No JS? Fill the form by hand. The geolocation button needs JavaScript.